Weather History for KDED - August, 2013

Change the Weather History Date:

Monday, August 5, 2013

  Actual Average Record
Temperature  
Mean Temperature 86 °F -  
Max Temperature 96 °F 91 °F 96 °F (2013)
Min Temperature 75 °F 71 °F 73 °F (2014)
Cooling Degree Days 20    
Growing Degree Days 36 (Base 50)    
Moisture  
Dew Point 77 °F    
Average Humidity 84    
Maximum Humidity 100    
Minimum Humidity 50    
Precipitation  
Precipitation 0.58 in - - ()
Sea Level Pressure  
Sea Level Pressure 30.00 in    
Wind  
Wind Speed 4 mph (WSW)    
Max Wind Speed 12 mph    
Max Gust Speed 24 mph    
Visibility 7 miles    
Events      
Averages and records for this station are not official NWS values.
T = Trace of Precipitation, MM = Missing Value Source: NWS Daily Summary

Daily Weather History Graph

Daily Weather History Graph

Search for Another Location

Airport or City:

Trip Planner

Search our weather history database for the weather conditions in past years. The results will help you decide how hot, cold, wet, or windy it might be!

Date:

Astronomy

Aug. 05, 2013 Rise Set
Actual Time 6:48 AM EDT 8:13 PM EDT
Civil Twilight 6:22 AM EDT 8:38 PM EDT
Nautical Twilight 5:52 AM EDT 9:09 PM EDT
Astronomical Twilight 5:20 AM EDT 9:40 PM EDT
Moon 5:41 AM EDT 7:16 PM EDT
Length of Visible Light 14h 16m
Length of Day
13h 25m
Waning Crescent, 1% of the Moon is Illuminated
Aug 5
Waning Crescent
Aug 6
New
Aug 14
First Quarter
Aug 20
Full
Aug 28
Last Quarter

Hourly Weather History & Observations

Time (EDT) Temp. Heat Index Dew Point Humidity Pressure Visibility Wind Dir Wind Speed Gust Speed Precip Events Conditions
12:15 AM 78.8 °F - 75.2 °F 89% 30.04 in 7.0 mi Calm Calm - N/A   Clear
12:35 AM 78.8 °F - 77.0 °F 94% 30.04 in 8.0 mi Calm Calm - N/A   Clear
12:55 AM 78.8 °F - 77.0 °F 94% 30.03 in 7.0 mi SW 3.5 mph - N/A   Clear
1:15 AM 78.8 °F - 77.0 °F 94% 30.03 in 7.0 mi SW 3.5 mph - N/A   Clear
1:35 AM 78.8 °F - 77.0 °F 94% 30.03 in 7.0 mi WSW 3.5 mph - N/A   Clear
1:55 AM 78.8 °F - 77.0 °F 94% 30.02 in 6.0 mi WSW 3.5 mph - N/A   Clear
2:15 AM 78.8 °F - 77.0 °F 94% 30.01 in 7.0 mi WSW 3.5 mph - N/A   Clear
2:35 AM 78.8 °F - 77.0 °F 94% 30.00 in 8.0 mi WSW 3.5 mph - N/A   Clear
2:55 AM 78.8 °F - 77.0 °F 94% 29.99 in 7.0 mi WSW 3.5 mph - N/A   Clear
3:15 AM 78.8 °F - 77.0 °F 94% 29.99 in 7.0 mi WSW 3.5 mph - N/A   Clear
3:35 AM 78.8 °F - 77.0 °F 94% 29.99 in 7.0 mi Calm Calm - N/A   Clear
3:55 AM 78.8 °F - 77.0 °F 94% 29.99 in 7.0 mi SW 4.6 mph - N/A   Clear
4:15 AM 78.8 °F - 77.0 °F 94% 29.98 in 7.0 mi SW 4.6 mph - N/A   Clear
4:55 AM 78.8 °F - 77.0 °F 94% 29.98 in 7.0 mi WSW 4.6 mph - N/A   Clear
5:15 AM 78.8 °F - 77.0 °F 94% 29.98 in 7.0 mi West 4.6 mph - N/A   Clear
5:35 AM 78.8 °F - 78.8 °F 100% 29.99 in 7.0 mi West 3.5 mph - N/A   Clear
5:55 AM 78.8 °F - 77.0 °F 94% 29.99 in 7.0 mi WSW 3.5 mph - N/A   Clear
6:15 AM 78.8 °F - 77.0 °F 94% 30.00 in 6.0 mi SW 3.5 mph - N/A   Clear
6:35 AM 77.0 °F - 75.2 °F 94% 30.01 in 5.0 mi Calm Calm - N/A   Clear
6:55 AM 77.0 °F - 77.0 °F 100% 30.01 in 5.0 mi WSW 3.5 mph - N/A   Clear
7:15 AM 78.8 °F - 78.8 °F 100% 30.01 in 5.0 mi WSW 3.5 mph - N/A   Clear
7:35 AM 78.8 °F - 78.8 °F 100% 30.01 in 7.0 mi WSW 4.6 mph - N/A   Clear
7:55 AM 78.8 °F - 78.8 °F 100% 30.02 in 7.0 mi WSW 4.6 mph - N/A   Clear
8:15 AM 80.6 °F 88.1 °F 78.8 °F 94% 30.02 in 7.0 mi WSW 4.6 mph - N/A   Clear
8:35 AM 80.6 °F 89.3 °F 80.6 °F 100% 30.02 in 8.0 mi WSW 4.6 mph - N/A   Clear
8:55 AM 82.4 °F 94.0 °F 80.6 °F 94% 30.03 in 7.0 mi West 3.5 mph - N/A   Clear
9:15 AM 84.2 °F 98.3 °F 80.6 °F 89% 30.03 in 8.0 mi WSW 4.6 mph - N/A   Clear
9:35 AM 87.8 °F 104.9 °F 80.6 °F 79% 30.02 in 8.0 mi West 6.9 mph - N/A   Clear
9:55 AM 89.6 °F 108.2 °F 80.6 °F 75% 30.02 in 8.0 mi West 3.5 mph - N/A   Clear
10:15 AM 89.6 °F 104.7 °F 78.8 °F 70% 30.02 in 8.0 mi West 5.8 mph - N/A   Clear
10:35 AM 91.4 °F 107.2 °F 78.8 °F 66% 30.02 in 7.0 mi WNW 6.9 mph - N/A   Clear
10:55 AM 93.2 °F 110.2 °F 78.8 °F 63% 30.03 in 7.0 mi West 5.8 mph - N/A   Clear
11:15 AM 93.2 °F 107.2 °F 77.0 °F 59% 30.02 in 7.0 mi WNW 8.1 mph - N/A   Clear
11:35 AM 95.0 °F 112.2 °F 78.8 °F 59% 30.02 in 8.0 mi WNW 9.2 mph - N/A   Clear
11:55 AM 95.0 °F 112.2 °F 78.8 °F 59% 30.02 in 8.0 mi NW 9.2 mph - N/A   Partly Cloudy
12:15 PM 93.2 °F 107.2 °F 77.0 °F 59% 30.01 in 8.0 mi NW 6.9 mph - N/A   Partly Cloudy
12:35 PM 96.8 °F 112.2 °F 77.0 °F 53% 30.00 in 8.0 mi NW 6.9 mph - N/A   Partly Cloudy
12:55 PM 95.0 °F 107.4 °F 75.2 °F 53% 29.99 in 9.0 mi WNW 8.1 mph - N/A   Partly Cloudy
1:15 PM 93.2 °F 107.2 °F 77.0 °F 59% 30.00 in 8.0 mi WNW 6.9 mph - N/A   Partly Cloudy
1:35 PM 95.0 °F 109.7 °F 77.0 °F 56% 29.97 in 7.0 mi NW 10.4 mph - N/A   Scattered Clouds
1:55 PM 96.8 °F 109.6 °F 75.2 °F 50% 29.97 in 8.0 mi NW 8.1 mph - N/A   Partly Cloudy
2:15 PM 96.8 °F 109.6 °F 75.2 °F 50% 29.97 in 8.0 mi North 6.9 mph - N/A   Partly Cloudy
2:35 PM 96.8 °F 109.6 °F 75.2 °F 50% 29.97 in 8.0 mi East 10.4 mph - N/A   Scattered Clouds
2:55 PM 89.6 °F 99.8 °F 75.2 °F 62% 29.96 in 8.0 mi SE 6.9 mph - N/A   Mostly Cloudy
3:15 PM 91.4 °F 102.5 °F 75.2 °F 59% 29.95 in 8.0 mi SE 11.5 mph - N/A   Partly Cloudy
3:35 PM 91.4 °F 105.1 °F 77.0 °F 63% 29.95 in 9.0 mi SE 9.2 mph - N/A   Clear
3:55 PM 91.4 °F 102.5 °F 75.2 °F 59% 29.95 in 8.0 mi SE 10.4 mph - N/A   Clear
4:15 PM 91.4 °F 102.5 °F 75.2 °F 59% 29.94 in 7.0 mi SE 9.2 mph - N/A   Partly Cloudy
4:35 PM 82.4 °F 89.5 °F 75.2 °F 79% 29.97 in 0.8 mi ENE 6.9 mph 24.2 mph 0.33 in   Overcast
4:55 PM 78.8 °F - 73.4 °F 83% 29.95 in 1.0 mi SW 10.4 mph 20.7 mph 0.55 in   Overcast
5:15 PM 77.0 °F - 73.4 °F 89% 29.95 in 8.0 mi South 6.9 mph - 0.02 in   Mostly Cloudy
5:35 PM 77.0 °F - 73.4 °F 89% 29.95 in 8.0 mi Calm Calm - 0.02 in   Clear
5:55 PM 77.0 °F - 75.2 °F 94% 29.95 in 8.0 mi Calm Calm - 0.03 in   Partly Cloudy
6:15 PM 78.8 °F - 75.2 °F 89% 29.96 in 8.0 mi SW 4.6 mph - N/A   Partly Cloudy
6:35 PM 78.8 °F - 77.0 °F 94% 29.95 in 7.0 mi West 5.8 mph - N/A   Scattered Clouds
6:55 PM 78.8 °F - 75.2 °F 89% 29.97 in 7.0 mi WSW 4.6 mph - N/A   Partly Cloudy
7:15 PM 78.8 °F - 75.2 °F 89% 29.98 in 6.0 mi West 3.5 mph - N/A   Clear
7:35 PM 78.8 °F - 75.2 °F 89% 29.98 in 6.0 mi Calm Calm - N/A   Clear
7:55 PM 78.8 °F - 75.2 °F 89% 29.99 in 8.0 mi Calm Calm - N/A   Clear
8:15 PM 78.8 °F - 75.2 °F 89% 29.98 in 6.0 mi SW 6.9 mph - N/A   Clear
8:35 PM 77.0 °F - 75.2 °F 94% 29.99 in 7.0 mi South 4.6 mph - N/A   Clear
8:55 PM 77.0 °F - 75.2 °F 94% 29.99 in 7.0 mi Calm Calm - N/A   Clear
9:15 PM 77.0 °F - 75.2 °F 94% 29.99 in 7.0 mi WSW 5.8 mph - N/A   Clear
9:35 PM 77.0 °F - 75.2 °F 94% 29.99 in 8.0 mi West 4.6 mph - N/A   Clear
9:55 PM 75.2 °F - 75.2 °F 100% 30.00 in 7.0 mi West 3.5 mph - N/A   Clear
10:15 PM 75.2 °F - 73.4 °F 94% 30.01 in 6.0 mi Calm Calm - N/A   Clear
10:35 PM 75.2 °F - 75.2 °F 100% 30.02 in 7.0 mi SW 3.5 mph - N/A   Clear
10:55 PM 75.2 °F - 75.2 °F 100% 30.02 in 6.0 mi South 3.5 mph - N/A   Clear
11:15 PM 75.2 °F - 75.2 °F 100% 30.02 in 6.0 mi Calm Calm - N/A   Clear
11:35 PM 75.2 °F - 75.2 °F 100% 30.01 in 5.0 mi Calm Calm - N/A   Clear
11:55 PM 75.2 °F - 75.2 °F 100% 30.00 in 5.0 mi WSW 4.6 mph - N/A   Clear